User: anonymous   Login
Location: Unspecified
(0.0000°N, 0.0000°E)
Time: 23:17:05
(UTC+00:00)
Language:

DX 1 - Orbit

View from above orbital plane
View from above orbital plane
View from above satellite
View from above satellite

Ground track
Ground track

The orbit data is extracted from the following two-line orbital elements,

1 40071U 14037C   18051.54726944  .00000083  00000-0  18168-4 0  9992
2 40071  98.3568 177.8361 0008176 345.7964  14.3020 14.81122964195739
Epoch (UTC): 20 February 2018 13:08:04
Eccentricity: 0.0008176
inclination: 98.3568°
perigee height: 620 km
apogee height: 631 km
right ascension of ascending node: 177.8361°
argument of perigee: 345.7964°
revolutions per day: 14.81122964
mean anomaly at epoch: 14.3020°
orbit number at epoch: 19573

The dashed part of the orbit path shows where the satellite is in the earth's shadow,  

DLR